GW3950 Weather Reports


time (UTC)temp
F
wind
direction
speed
knots
gust
knots
rain 1hr
in
rain 24hr
in
rain mn
in
humidity
%
barometer
mb
20260505192633 88 240 6.1 13.0 0.00 0.00 0.00 53 1002.2
20260505191627 88 227 6.1 13.0 0.00 0.00 0.00 52 1002.3
20260505190557 87 194 5.2 12.2 0.00 0.00 0.00 53 1002.0
20260505185615 87 222 5.2 16.5 0.00 0.00 0.00 56 1002.0
20260505183428 85 213 7.0 13.9 0.00 0.00 0.00 59 1002.0
20260505182416 85 180 7.8 13.9 0.00 0.00 0.00 61 1002.2
20260505181437 84 200 7.0 13.0 0.00 0.00 0.00 61 1002.2
20260505180403 84 190 6.1 14.8 0.00 0.00 0.00 61 1002.3
20260505175332 84 195 7.0 17.4 0.00 0.00 0.00 61 1002.2
20260505174323 83 192 7.8 17.4 0.00 0.00 0.00 66 1002.3
20260505173334 83 209 7.8 14.8 0.00 0.00 0.00 65 1002.2
20260505171209 83 195 7.0 13.9 0.00 0.00 0.00 64 1002.5
20260505170140 83 194 7.0 13.0 0.00 0.00 0.00 65 1002.3
20260505165123 82 184 7.8 13.9 0.00 0.00 0.00 65 1002.5
20260505164126 82 207 7.8 15.6 0.00 0.00 0.00 65 1002.4
20260505163108 82 218 7.0 15.6 0.00 0.00 0.00 68 1002.3
20260505162109 80 183 7.0 13.0 0.00 0.00 0.00 71 1002.2
20260505161126 79 210 7.8 13.0 0.00 0.00 0.00 72 1002.2
20260505160151 78 202 7.8 18.2 0.00 0.00 0.00 73 1002.0
20260505153054 76 226 7.8 14.8 0.00 0.00 0.00 77 1001.7
20260505152119 75 214 9.6 16.5 0.00 0.00 0.00 78 1001.9
20260505151044 74 213 8.7 18.2 0.00 0.00 0.00 78 1001.9
20260505125002 70 173 7.8 16.5 0.00 0.00 0.00 83 1001.7
20260505123934 70 197 8.7 16.5 0.00 0.00 0.00 84 1001.6
20260505122945 70 178 8.7 16.5 0.00 0.00 0.00 84 1001.3
20260505115606 69 202 8.7 14.8 0.00 0.00 0.00 83 1001.1
20260505114623 70 157 8.7 17.4 0.00 0.00 0.00 83 1000.9
20260505112422 70 225 9.6 18.2 0.00 0.00 0.00 83 1000.8
20260505111441 70 187 8.7 17.4 0.00 0.00 0.00 83 1000.7
20260505110437 70 208 8.7 19.1 0.00 0.00 0.00 83 1000.8
20260505101350 70 187 9.6 18.2 0.00 0.00 0.00 81 1000.7
20260505100330 70 161 8.7 14.8 0.00 0.00 0.00 81 1000.7
20260505095347 70 180 8.7 13.9 0.00 0.00 0.00 81 1000.7
20260505094400 70 173 9.6 20.0 0.00 0.00 0.00 81 1000.8
20260505093414 70 219 10.4 20.9 0.00 0.00 0.00 81 1000.9
20260505092356 71 169 8.7 20.9 0.00 0.00 0.00 80 1000.9
20260505091357 71 174 8.7 20.0 0.00 0.00 0.00 79 1001.1
20260505090330 71 199 8.7 20.0 0.00 0.00 0.00 79 1001.1
20260505085315 71 177 9.6 17.4 0.00 0.00 0.00 78 1001.3
20260505082032 72 197 7.8 18.2 0.00 0.00 0.00 77 1001.4
20260505081016 72 180 8.7 18.2 0.00 0.00 0.00 77 1001.4
20260505075950 72 161 8.7 14.8 0.00 0.00 0.00 77 1001.4
20260505075013 72 180 7.0 14.8 0.00 0.00 0.00 76 1001.5
20260505074012 72 178 7.0 13.0 0.00 0.00 0.00 76 1001.6
20260505072943 73 152 5.2 12.2 0.00 0.00 0.00 75 1001.8
20260505071924 73 167 7.0 17.4 0.00 0.00 0.00 74 1002.0
20260505070912 73 169 8.7 17.4 0.00 0.00 0.00 74 1002.2
20260505065907 73 167 7.8 16.5 0.00 0.00 0.00 73 1002.4
20260505064925 73 173 9.6 15.6 0.00 0.00 0.00 73 1002.6
20260505063948 73 170 7.8 15.6 0.00 0.00 0.00 73 1002.8
20260505062915 73 177 7.8 13.9 0.00 0.00 0.00 73 1002.8
20260505061841 73 171 7.8 13.9 0.00 0.00 0.00 74 1002.9
20260505060812 73 167 7.8 15.6 0.00 0.00 0.00 74 1002.8
20260505055820 73 167 7.0 15.6 0.00 0.00 0.00 74 1003.0
20260505054800 73 192 7.0 14.8 0.00 0.00 0.00 74 1002.9
20260505053813 73 170 7.8 14.8 0.00 0.00 0.00 74 1002.9
20260505052746 74 164 8.7 18.2 0.00 0.00 0.00 73 1002.9
20260505051733 74 152 9.6 18.2 0.00 0.00 0.00 73 1002.8
20260505050748 74 153 8.7 15.6 0.00 0.00 0.00 72 1002.8
20260505034418 73 171 7.0 11.3 0.00 0.00 0.00 74 1003.3
20260505033347 73 163 7.0 13.0 0.00 0.00 0.00 74 1003.2
20260505032335 73 140 7.0 13.0 0.00 0.00 0.00 74 1003.0
20260505031330 73 171 7.0 12.2 0.00 0.00 0.00 75 1003.0
20260505030330 73 158 7.0 13.0 0.00 0.00 0.00 75 1002.9
20260505025306 73 155 7.0 13.0 0.00 0.00 0.00 75 1002.9
20260505024301 73 161 6.1 10.4 0.00 0.00 0.00 75 1003.0
20260505023232 73 165 6.1 13.9 0.00 0.00 0.00 74 1003.2
20260505021101 73 171 7.0 12.2 0.00 0.00 0.00 74 1003.1
20260505015106 74 150 6.1 11.3 0.00 0.00 0.00 73 1002.8
20260505014125 74 147 5.2 9.6 0.00 0.00 0.00 72 1003.0
20260505013056 75 130 4.3 9.6 0.00 0.00 0.00 71 1003.0
20260505012119 75 150 4.3 13.0 0.00 0.00 0.00 69 1003.1
20260505011048 76 148 7.0 13.0 0.00 0.00 0.00 68 1002.9
20260505010027 76 146 5.2 10.4 0.00 0.00 0.00 68 1003.0
20260505005049 76 179 6.1 13.0 0.00 0.00 0.00 67 1002.9
20260505004030 77 190 6.1 13.0 0.00 0.00 0.00 67 1003.0
20260505001907 77 189 7.0 13.0 0.00 0.00 0.00 66 1003.1
20260505000915 78 150 7.8 15.6 0.00 0.00 0.00 65 1003.1
20260504235847 78 184 10.4 20.9 0.00 0.00 0.00 63 1003.2
20260504233739 79 126 9.6 19.1 0.00 0.00 0.00 64 1003.6
20260504232728 79 175 9.6 16.5 0.00 0.00 0.00 64 1003.6
20260504230657 79 177 9.6 21.7 0.00 0.00 0.00 63 1003.7
20260504225715 79 188 10.4 21.7 0.00 0.00 0.00 63 1003.7
20260504224642 80 163 10.4 16.5 0.00 0.00 0.00 63 1003.8
20260504222602 80 190 10.4 21.7 0.00 0.00 0.00 60 1003.9
20260504221626 80 140 9.6 18.2 0.00 0.00 0.00 61 1003.9
20260504220625 80 182 10.4 18.2 0.00 0.00 0.00 61 1003.8
20260504215558 80 147 10.4 18.2 0.00 0.00 0.00 61 1004.0
20260504214526 81 194 10.4 18.2 0.00 0.00 0.00 60 1004.2
20260504213517 82 163 10.4 18.2 0.00 0.00 0.00 59 1004.3
20260504211322 82 159 12.2 26.1 0.00 0.00 0.00 58 1004.7
20260504203952 82 190 13.0 21.7 0.00 0.00 0.00 57 1005.1
20260504202944 83 156 10.4 20.9 0.00 0.00 0.00 56 1005.5
20260504201935 82 169 10.4 21.7 0.00 0.00 0.00 59 1005.6
20260504200915 81 186 11.3 21.7 0.00 0.00 0.00 58 1005.9
20260504195935 81 177 11.3 21.7 0.00 0.00 0.00 58 1006.2
20260504194913 81 188 10.4 19.1 0.00 0.00 0.00 57 1006.4